Flag for U.S.A. Weather past 2 weeks in San Antonio, Texas, U.S.A.

Now
59 °F

Broken clouds.


Feels Like: 57 °F
Forecast: 51 / 62 °F
Wind: 13 mph from Northeast

Location: San Antonio International Airport

Current Time: Dec 19, 2014 at 12:21:13 PM

Latest Report: Dec 19, 2014 at 11:51 AM


Visibility: 10 mi

Pressure: 30.07 "Hg

Humidity: 69%

Dew point: 49 °F

Location of San AntonioLocation

Historic Weather in San Antonio — Graph

°F

San Antonio temperature yesterday

Maximum temperature yesterday: 66 °F (at 1:51 PM)
Minimum temperature yesterday: 57 °F (at 12:51 AM)
Average temperature yesterday: 60 °F

Past Weeks' High & Low Weather Summary

 TemperatureHumidityPressure
High76 °F (Dec 15, 2:51 PM)97% (Dec 13, 4:51 AM)30.34 "Hg (Dec 13, 4:51 AM)
Low46 °F (Dec 9, 4:51 AM)20% (Dec 15, 3:51 PM)29.81 "Hg (Dec 14, 4:51 PM)
Average61 °F74%30.13 "Hg
* Reported Dec 4 10:51 AM — Dec 19 10:51 AM, San Antonio, Weather by CustomWeather, © 2014

Note: Actual official high and low records may vary slightly from our data, if they occured in-between our weather recording intervals... More about our weather records

Advertising

San Antonio weather history for previous 24 hours

 ConditionsComfort  
Time TempWeatherWind HumidityBarometerVisibility
10:51 AM
Dec 19
57 °FPartly sunny.14 mph74%30.08 "Hg10 mi
9:51 AM56 °FBroken clouds.14 mph77%30.07 "Hg10 mi
8:51 AM51 °FMostly cloudy.10 mph89%30.07 "Hg10 mi
7:51 AM52 °FDrizzle. Fog.13 mph86%30.06 "Hg2 mi
7:00 AM52 °FDrizzle. Fog.10 mph89%30.07 "Hg2 mi
5:51 AM52 °FDrizzle. Fog.8 mph89%30.00 "Hg6 mi
4:51 AM52 °FDrizzle. Fog.10 mph93%29.99 "Hg5 mi
3:51 AM53 °FDrizzle. Fog.12 mph89%29.99 "Hg6 mi
2:51 AM53 °FDrizzle. Fog.9 mph89%29.98 "Hg4 mi
1:51 AM54 °FLight rain. Fog.10 mph90%29.99 "Hg3 mi
12:55 AM55 °FLight rain. Fog.12 mph93%30.05 "Hg2 mi
11:51 PM
Dec 18
57 °FLight rain. Fog.10 mph90%30.01 "Hg2 mi
10:51 PM57 °FLight rain. Fog.5 mph93%30.01 "Hg2 mi
9:51 PM58 °FLight rain. Fog.8 mph90%30.02 "Hg5 mi
8:51 PM59 °FFog.7 mph90%30.01 "Hg5 mi
7:51 PM60 °FLow clouds.9 mph90%30.01 "Hg10 mi
6:51 PM61 °FLow clouds.13 mph87%29.99 "Hg10 mi
5:51 PM63 °FOvercast.8 mph84%29.98 "Hg9 mi
4:51 PM64 °FOvercast.8 mph84%29.98 "Hg10 mi
3:51 PM66 °FMostly cloudy.8 mph81%29.98 "Hg10 mi
2:51 PM65 °FBroken clouds.6 mph81%29.99 "Hg10 mi
1:51 PM66 °FLow clouds.6 mph78%30.00 "Hg10 mi
12:51 PM65 °FLow clouds.5 mph81%30.03 "Hg10 mi
Weather by CustomWeather, © 2014

See weather overviewHow to use our weather pages